Regional Weather Roundup
Issued by NWS Sterling, VA

Home | Current Version | Previous Version | Text Only | Print | Product List | Glossary Off
Versions: 1 2 3 4 5 6 7 8 9 10 11 12 13 14 15 16 17 18 19 20 21 22 23 24 25 26 27 28 29 30 31 32 33 34 35 36 37 38 39 40 41 42 43 44 45 46 47 48 49

000
ASUS41 KLWX 290310
RWRLWX

REGIONAL WEATHER ROUNDUP
NATIONAL WEATHER SERVICE BALTIMORE MD/WASHINGTON DC
1100 PM EDT SAT MAR 28 2015

Note: "FAIR" indicates few or no clouds below 12,000 feet
with no significant weather and/or obstructions to visibility.
 TC=TEMPERATURE CELSIUS

 * =Non NWS site. Station does not report precipitation (e.g. rain,
    snow, etc.), thunder, or fog.

DCZ001-MDZ009-015-VAZ040>042-051-053>054-290400-
WASHINGTON METRO

CITY           SKY/WX    TMP DP  RH WIND       PRES   REMARKS
WASHINGTON NAT PTCLDY    32   7  35 NW13G18   30.24R WCI  22
DULLES         CLEAR     28   7  41 NW9       30.24R WCI  19
ANDREWS AFB    CLEAR     29   7  38 NW15      30.21R WCI  18
FT BELVOIR     CLEAR     30   6  37 NW12      30.25R WCI  20
QUANTICO       CLEAR     31   6  35 N12       30.27R WCI  22
COLLEGE PARK*  CLEAR     32   9  37 W6G18     30.23R
LEESBURG*      CLEAR     30  12  47 NW10      30.24R WCI  21
MANASSAS*      CLEAR     27  12  54 NW5       30.25R
GAITHERSBURG*  CLEAR     25   7  46 NW12      30.24R WCI  14

$$

MDZ006>007-011-014-290400-
BALTIMORE METRO

CITY           SKY/WX    TMP DP  RH WIND       PRES   REMARKS
BWI AIRPORT    PTCLDY    28   9  44 W8        30.20R WCI  20
MARTIN STATE   CLEAR     32  12  43 W13       30.21R WCI  22
ANNAPOLIS      CLEAR     30  11  45 W8        30.21R WCI  22

$$

MDZ012-015-019>023-290400-
MARYLAND EASTERN SHORE

CITY           SKY/WX    TMP DP  RH WIND       PRES   REMARKS
OCEAN CITY     PTCLDY    29  16  58 NW8       30.19R WCI  21
SALISBURY      CLEAR     30  11  45 NW8       30.19R WCI  22
BAY BRIDGE AP*   N/A     32  12  43 W14G20    30.21R WCI  22
CAMBRIDGE*     FAIR      32  12  43 NW13      30.20S WCI  22
EASTON*        FAIR      32  15  49 NW10      30.24R WCI  23

$$

MDZ017>025-290400-
SOUTHERN MARYLAND

CITY           SKY/WX    TMP DP  RH WIND       PRES   REMARKS
PATUXENT RIVER PTCLDY    31   9  39 NW18      30.22R WCI  19
ST INIGOES     PTCLDY    31   7  36 NW12G18   30.22R WCI  22
LEONARDTOWN*   PTCLDY    30   9  40 NW3       30.24R

$$

MDZ003>005-290400-
NORTH CENTRAL MARYLAND

CITY           SKY/WX    TMP DP  RH WIND       PRES   REMARKS
FREDERICK*     CLEAR     30   3  31 NW14      30.25R WCI  20
HAGERSTOWN APT CLEAR     27   2  34 NW15      30.22R WCI  15
WESTMINSTER*   PTCLDY    25   7  46 W8        30.17R WCI  16

$$

MDZ501>502-290400-
WESTERN MARYLAND

CITY           SKY/WX    TMP DP  RH WIND       PRES   REMARKS
OAKLAND*       CLEAR     16   9  73 NW8G17    30.12R WCI   5
CUMBERLAND*    CLEAR     28   5  37 N9G17     30.29R WCI  20

$$

VAZ025>031-290400-
SHENANDOAH VALLEY

CITY           SKY/WX    TMP DP  RH WIND       PRES   REMARKS
WINCHESTER*    CLEAR     30   3  31 NW12G17   30.22R WCI  21
FRONT ROYAL*   FAIR      28   9  43 NW3       30.22R
LURAY*         FAIR      30  12  47 NW5       30.22R
NEW MARKET*    FAIR      23  10  55 CALM      30.22R
STAUNTON*      CLEAR     26   8  46 W3        30.24R
WAYNESBORO*    FAIR      24   6  46 NW3       30.21R

$$

WVZ021-048>050-054>055-290400-
EASTERN WEST VIRGINIA PANHANDLE

CITY           SKY/WX    TMP DP  RH WIND       PRES   REMARKS
MARTINSBURG    CLEAR     29   6  38 NW13G22   30.24R WCI  19
PETERSBURG*    CLEAR     29   4  34 N7G20     30.25R

$$

VAZ036>039-050-290400-
CENTRAL FOOTHILLS

CITY           SKY/WX    TMP DP  RH WIND       PRES   REMARKS
CHARLOTTESVILL CLEAR     29   8  41 NW5       30.24R
CULPEPER*      CLEAR     28  10  47 CALM      30.26R
ORANGE*        CLEAR     30  12  47 SW5       30.26R
GORDONSVILLE*  FAIR      29   8  41 CALM      30.24R
WARRENTON*     FAIR      26  18  71 CALM      30.24R

$$

VAZ055>057-290400-
NORTH AND CENTRAL PIEDMONT

CITY           SKY/WX    TMP DP  RH WIND       PRES   REMARKS
FREDERICKSBRG* CLEAR     31  10  41 CALM      30.26R
STAFFORD*      CLEAR     26   8  46 NW6       30.30R

$$

NCZ024-NYZ072-PAZ021-071-VAZ022-071-290400-
OTHER REGIONAL OBSERVATIONS

CITY           SKY/WX    TMP DP  RH WIND       PRES   REMARKS
NEW YORK CITY  CLOUDY    29  14  53 N7        30.12R
PHILADELPHIA   PTCLDY    30   6  36 NW22G28   30.17R WCI  17
PITTSBURGH     CLEAR     22   6  50 NW8       30.27R WCI  12
ROANOKE        CLEAR     29   5  36 NW12      30.26R WCI  19
RICHMOND       CLEAR     31   9  39 N7        30.26R
RALEIGH        CLEAR     34  10  37 CALM      30.25R

$$

ANZ530>537-290400-
MARINE OBSERVATIONS

STATION/POSITION TIME  TEMP    WIND        PRES
                       AIR SEA DIR/SP/G
                 (UTC) (F)     (DEG/KT/KT) (MB)
THOMAS PT LIGHT  0300                        N/A
BALT KEY BRIDGE  0200   31     270/ 15/ 17 1022.1R
COVE POINT       0200   31     330/ 11/ 18 1022.8R
LEWISETTA        0200   34 45              1023.3R
SOLOMONS ISLAND  0200      43                N/A
PINEY POINT      0206          360/ 17/ 18   N/A

$$



USA.gov is the U.S. government's official web portal to all federal, state and local government web resources and services.